SWA735 KOKC-KHOU

Flight info

Callsign SWA735
Flight time 1h 4m
Altitude 37000
Route MUDDE3 OLFRD CVE ELLVR KIDDZ5
Aircraft B737/M-SDE2E3FGHIRWXY/LB1

Departure

Time 2026-04-11 03:39
Airport OKC Will Rogers World Airport (KOKC)

Arrival

Time 2026-04-11 04:43
Airport William P. Hobby Airport (KHOU)
Time Latitude Longitude Altitude Speed Heading
2026-04-11 02:38 35.39454 -97.59657 1296 ft 0 kts 15°
2026-04-11 03:26 35.39443 -97.59661 1296 ft 4 kts 15°
2026-04-11 03:26 35.39409 -97.59673 1296 ft 4 kts 15°
2026-04-11 03:26 35.39394 -97.59678 1296 ft 1 kts 15°
2026-04-11 03:32 35.39396 -97.59678 1296 ft 0 kts 357°
2026-04-11 03:32 35.39398 -97.59681 1296 ft 1 kts 325°
2026-04-11 03:32 35.39398 -97.59690 1296 ft 2 kts 285°
2026-04-11 03:33 35.39405 -97.59721 1296 ft 5 kts 284°
2026-04-11 03:33 35.39416 -97.59776 1296 ft 8 kts 275°
2026-04-11 03:33 35.39382 -97.59830 1295 ft 10 kts 193°
2026-04-11 03:33 35.39302 -97.59826 1292 ft 13 kts 178°
2026-04-11 03:34 35.39243 -97.59891 1291 ft 13 kts 292°
2026-04-11 03:34 35.39307 -97.59966 1292 ft 13 kts 319°
2026-04-11 03:34 35.39372 -97.60040 1292 ft 13 kts 316°
2026-04-11 03:34 35.39443 -97.60123 1290 ft 15 kts 316°
2026-04-11 03:35 35.39528 -97.60221 1289 ft 18 kts 317°
2026-04-11 03:35 35.39614 -97.60324 1289 ft 17 kts 315°
2026-04-11 03:35 35.39710 -97.60398 1287 ft 16 kts 352°
2026-04-11 03:35 35.39822 -97.60400 1288 ft 16 kts 360°
2026-04-11 03:36 35.39930 -97.60401 1289 ft 15 kts 360°
2026-04-11 03:36 35.40037 -97.60400 1291 ft 17 kts
2026-04-11 03:36 35.40167 -97.60401 1294 ft 20 kts 360°
2026-04-11 03:36 35.40305 -97.60401 1296 ft 19 kts 360°
2026-04-11 03:37 35.40438 -97.60401 1296 ft 19 kts 360°
2026-04-11 03:37 35.40541 -97.60404 1296 ft 12 kts 348°
2026-04-11 03:37 35.40580 -97.60483 1297 ft 12 kts 272°
2026-04-11 03:37 35.40564 -97.60571 1296 ft 7 kts 203°
2026-04-11 03:38 35.40531 -97.60574 1296 ft 5 kts 181°
2026-04-11 03:38 35.40376 -97.60574 1294 ft 54 kts 179°
2026-04-11 03:38 35.39771 -97.60573 1289 ft 117 kts 180°
2026-04-11 03:38 35.38792 -97.60556 1356 ft 159 kts 179°
2026-04-11 03:39 35.37650 -97.60545 1829 ft 170 kts 180°
2026-04-11 03:39 35.36419 -97.60542 2279 ft 185 kts 179°
2026-04-11 03:39 35.35094 -97.60527 2820 ft 192 kts 178°
2026-04-11 03:39 35.33747 -97.60522 3440 ft 198 kts 179°
2026-04-11 03:40 35.32300 -97.60427 3636 ft 221 kts 172°
2026-04-11 03:40 35.30724 -97.60186 4032 ft 239 kts 172°
2026-04-11 03:40 35.28993 -97.59910 4436 ft 258 kts 172°
2026-04-11 03:40 35.27223 -97.59636 5319 ft 257 kts 172°
2026-04-11 03:41 35.25435 -97.59366 6115 ft 263 kts 173°
2026-04-11 03:41 35.23601 -97.59096 6954 ft 265 kts 173°
2026-04-11 03:41 35.21747 -97.58829 7789 ft 268 kts 174°
2026-04-11 03:41 35.19873 -97.58562 8590 ft 276 kts 174°
2026-04-11 03:42 35.17942 -97.58289 9428 ft 281 kts 174°
2026-04-11 03:42 35.16003 -97.58015 10342 ft 284 kts 175°
2026-04-11 03:42 35.13978 -97.57733 10745 ft 306 kts 174°
2026-04-11 03:42 35.11767 -97.57426 10964 ft 331 kts 174°
2026-04-11 03:43 35.09430 -97.57100 11501 ft 344 kts 174°
2026-04-11 03:43 35.07029 -97.56764 12261 ft 349 kts 174°
2026-04-11 03:43 35.04591 -97.56424 12995 ft 356 kts 174°
2026-04-11 03:43 35.02113 -97.56078 13794 ft 360 kts 174°
2026-04-11 03:44 34.99607 -97.55726 14594 ft 363 kts 174°
2026-04-11 03:44 34.97097 -97.55368 15381 ft 367 kts 174°
2026-04-11 03:44 34.94566 -97.54983 16081 ft 374 kts 171°
2026-04-11 03:44 34.92000 -97.54155 16837 ft 380 kts 160°
2026-04-11 03:45 34.89570 -97.52920 17564 ft 387 kts 158°
2026-04-11 03:45 34.87083 -97.51583 18237 ft 393 kts 158°
2026-04-11 03:45 34.84577 -97.50215 18962 ft 396 kts 157°
2026-04-11 03:45 34.82049 -97.48839 19634 ft 400 kts 157°
2026-04-11 03:46 34.79485 -97.47457 20228 ft 406 kts 158°
2026-04-11 03:46 34.76891 -97.46069 20920 ft 409 kts 158°
2026-04-11 03:46 34.74274 -97.44677 21601 ft 412 kts 158°
2026-04-11 03:46 34.71629 -97.43276 22229 ft 416 kts 158°
2026-04-11 03:47 34.68958 -97.41864 22818 ft 421 kts 158°
2026-04-11 03:47 34.66248 -97.40435 23396 ft 426 kts 158°
2026-04-11 03:47 34.63512 -97.38992 23934 ft 431 kts 158°
2026-04-11 03:47 34.60752 -97.37538 24447 ft 434 kts 158°
2026-04-11 03:48 34.57970 -97.36073 24956 ft 437 kts 159°
2026-04-11 03:48 34.55171 -97.34600 25462 ft 440 kts 159°
2026-04-11 03:48 34.52343 -97.33112 25943 ft 444 kts 159°
2026-04-11 03:48 34.49504 -97.31620 26428 ft 447 kts 159°
2026-04-11 03:49 34.46637 -97.30114 26892 ft 450 kts 159°
2026-04-11 03:49 34.43755 -97.28602 27333 ft 453 kts 159°
2026-04-11 03:49 34.40846 -97.27077 27777 ft 457 kts 159°
2026-04-11 03:49 34.37917 -97.25541 28217 ft 460 kts 159°
2026-04-11 03:50 34.35002 -97.24015 28650 ft 463 kts 159°
2026-04-11 03:50 34.32031 -97.22460 29062 ft 466 kts 159°
2026-04-11 03:50 34.29038 -97.20894 29490 ft 469 kts 159°
2026-04-11 03:50 34.26032 -97.19324 29875 ft 472 kts 159°
2026-04-11 03:51 34.22998 -97.17746 30258 ft 475 kts 160°
2026-04-11 03:51 34.19871 -97.16450 30568 ft 475 kts 169°
2026-04-11 03:51 34.16626 -97.15694 30911 ft 474 kts 173°
2026-04-11 03:51 34.13363 -97.15059 31263 ft 475 kts 174°
2026-04-11 03:52 34.10093 -97.14449 31684 ft 474 kts 174°
2026-04-11 03:52 34.06883 -97.13847 32148 ft 473 kts 174°
2026-04-11 03:52 34.03638 -97.13225 32600 ft 471 kts 174°
2026-04-11 03:52 34.00404 -97.12591 32986 ft 471 kts 174°
2026-04-11 03:53 33.97170 -97.11947 33389 ft 470 kts 174°
2026-04-11 03:53 33.93953 -97.11300 33806 ft 469 kts 174°
2026-04-11 03:53 33.90731 -97.10650 34201 ft 468 kts 174°
2026-04-11 03:53 33.87521 -97.10002 34514 ft 468 kts 174°
2026-04-11 03:54 33.84315 -97.09355 34836 ft 467 kts 174°
2026-04-11 03:54 33.81118 -97.08712 35162 ft 466 kts 174°
2026-04-11 03:54 33.77912 -97.08067 35460 ft 466 kts 174°
2026-04-11 03:54 33.74719 -97.07426 35791 ft 465 kts 174°
2026-04-11 03:55 33.71535 -97.06787 36138 ft 463 kts 174°
2026-04-11 03:55 33.68358 -97.06150 36454 ft 462 kts 174°
2026-04-11 03:55 33.65190 -97.05516 36724 ft 462 kts 174°
2026-04-11 03:55 33.62062 -97.04891 36979 ft 462 kts 174°
2026-04-11 03:56 33.58890 -97.04257 37227 ft 462 kts 174°
2026-04-11 03:56 33.55704 -97.03622 37154 ft 466 kts 174°
2026-04-11 03:56 33.49310 -97.02346 37163 ft 465 kts 174°
2026-04-11 03:57 33.42995 -97.01084 37163 ft 457 kts 174°
2026-04-11 03:57 33.36724 -96.99837 37175 ft 457 kts 174°
2026-04-11 03:58 33.30444 -96.98591 37175 ft 458 kts 174°
2026-04-11 03:58 33.24154 -96.97343 37173 ft 458 kts 174°
2026-04-11 03:59 33.17861 -96.96097 37175 ft 459 kts 174°
2026-04-11 03:59 33.11558 -96.94849 37170 ft 459 kts 174°
2026-04-11 04:00 33.05280 -96.93609 37163 ft 460 kts 174°
2026-04-11 04:00 32.98959 -96.92362 37196 ft 460 kts 174°
2026-04-11 04:01 32.92634 -96.91115 37188 ft 460 kts 175°
2026-04-11 04:01 32.86317 -96.90094 37153 ft 456 kts 180°
2026-04-11 04:02 32.79984 -96.89747 37142 ft 454 kts 182°
2026-04-11 04:02 32.73661 -96.89487 37159 ft 454 kts 182°
2026-04-11 04:03 32.67383 -96.89178 37142 ft 454 kts 182°
2026-04-11 04:03 32.61083 -96.88831 37155 ft 453 kts 181°
2026-04-11 04:04 32.54795 -96.88476 37157 ft 452 kts 181°
2026-04-11 04:04 32.48510 -96.88121 37161 ft 452 kts 181°
2026-04-11 04:05 32.42234 -96.87769 37150 ft 452 kts 182°
2026-04-11 04:05 32.35957 -96.87418 37158 ft 451 kts 182°
2026-04-11 04:06 32.29682 -96.87067 37172 ft 451 kts 182°
2026-04-11 04:06 32.23401 -96.86717 37174 ft 452 kts 182°
2026-04-11 04:07 32.17116 -96.86362 37167 ft 452 kts 182°
2026-04-11 04:07 32.10876 -96.86015 37170 ft 452 kts 182°
2026-04-11 04:08 32.04583 -96.85669 37171 ft 453 kts 182°
2026-04-11 04:08 31.98279 -96.85320 37174 ft 453 kts 182°
2026-04-11 04:09 31.91959 -96.84970 37167 ft 454 kts 182°
2026-04-11 04:09 31.85648 -96.84620 37158 ft 454 kts 182°
2026-04-11 04:10 31.79327 -96.84271 37175 ft 455 kts 182°
2026-04-11 04:10 31.73001 -96.83922 37172 ft 455 kts 182°
2026-04-11 04:11 31.66718 -96.82694 37191 ft 462 kts 169°
2026-04-11 04:11 31.60512 -96.80689 37168 ft 463 kts 169°
2026-04-11 04:12 31.54340 -96.78701 37171 ft 462 kts 169°
2026-04-11 04:12 31.48116 -96.76753 37176 ft 462 kts 169°
2026-04-11 04:13 31.41884 -96.74827 37181 ft 462 kts 169°
2026-04-11 04:13 31.38773 -96.73868 36950 ft 466 kts 169°
2026-04-11 04:13 31.35615 -96.72895 36392 ft 468 kts 169°
2026-04-11 04:14 31.33531 -96.72251 35964 ft 468 kts 169°
2026-04-11 04:14 31.30382 -96.71278 35280 ft 468 kts 169°
2026-04-11 04:14 31.27232 -96.70305 34588 ft 469 kts 169°
2026-04-11 04:14 31.24074 -96.69331 33799 ft 471 kts 169°
2026-04-11 04:15 31.17790 -96.67276 32602 ft 466 kts 164°
2026-04-11 04:15 31.14758 -96.65986 32083 ft 462 kts 162°
2026-04-11 04:15 31.11771 -96.64625 31568 ft 458 kts 161°
2026-04-11 04:16 31.08860 -96.63285 31067 ft 454 kts 162°
2026-04-11 04:16 31.05925 -96.61952 30557 ft 450 kts 162°
2026-04-11 04:16 31.03011 -96.60650 30031 ft 447 kts 162°
2026-04-11 04:16 31.00111 -96.59372 29462 ft 443 kts 162°
2026-04-11 04:17 30.97245 -96.58117 28935 ft 438 kts 162°
2026-04-11 04:17 30.94399 -96.56872 28400 ft 434 kts 162°
2026-04-11 04:17 30.91587 -96.55642 27894 ft 430 kts 162°
2026-04-11 04:17 30.88800 -96.54422 27381 ft 426 kts 162°
2026-04-11 04:18 30.86034 -96.53213 26870 ft 422 kts 162°
2026-04-11 04:18 30.83293 -96.52016 26374 ft 419 kts 162°
2026-04-11 04:18 30.80576 -96.50829 25869 ft 416 kts 162°
2026-04-11 04:18 30.77873 -96.49650 25370 ft 413 kts 162°
2026-04-11 04:19 30.75186 -96.48477 24875 ft 411 kts 162°
2026-04-11 04:19 30.72511 -96.47311 24364 ft 410 kts 162°
2026-04-11 04:19 30.69842 -96.46148 23839 ft 409 kts 161°
2026-04-11 04:19 30.67185 -96.44991 23255 ft 406 kts 161°
2026-04-11 04:20 30.64556 -96.43843 22695 ft 403 kts 161°
2026-04-11 04:20 30.61945 -96.42702 22160 ft 399 kts 161°
2026-04-11 04:20 30.59374 -96.41515 21646 ft 396 kts 158°
2026-04-11 04:20 30.56910 -96.40201 21164 ft 394 kts 156°
2026-04-11 04:21 30.54450 -96.38823 20660 ft 392 kts 155°
2026-04-11 04:21 30.51998 -96.37444 20161 ft 390 kts 155°
2026-04-11 04:21 30.49553 -96.36081 19632 ft 389 kts 156°
2026-04-11 04:21 30.47104 -96.34731 18951 ft 391 kts 156°
2026-04-11 04:22 30.44650 -96.33388 18354 ft 390 kts 156°
2026-04-11 04:22 30.42197 -96.32049 17738 ft 387 kts 156°
2026-04-11 04:22 30.39776 -96.30748 17184 ft 380 kts 157°
2026-04-11 04:22 30.37393 -96.29492 16659 ft 371 kts 156°
2026-04-11 04:23 30.35075 -96.28274 16105 ft 362 kts 157°
2026-04-11 04:23 30.32798 -96.27078 15603 ft 357 kts 157°
2026-04-11 04:23 30.30544 -96.25892 15109 ft 354 kts 156°
2026-04-11 04:23 30.28304 -96.24711 14610 ft 353 kts 157°
2026-04-11 04:24 30.26079 -96.23536 14080 ft 351 kts 156°
2026-04-11 04:24 30.23856 -96.22366 13568 ft 350 kts 156°
2026-04-11 04:24 30.21644 -96.21201 13031 ft 349 kts 157°
2026-04-11 04:24 30.19480 -96.20049 12544 ft 345 kts 156°
2026-04-11 04:25 30.17310 -96.18892 12058 ft 341 kts 156°
2026-04-11 04:25 30.15170 -96.17750 11737 ft 333 kts 156°
2026-04-11 04:25 30.13114 -96.16649 11706 ft 321 kts 155°
2026-04-11 04:25 30.11104 -96.15573 11641 ft 318 kts 156°
2026-04-11 04:26 30.09075 -96.14488 11596 ft 324 kts 156°
2026-04-11 04:26 30.07013 -96.13387 11557 ft 328 kts 155°
2026-04-11 04:26 30.04948 -96.12266 11491 ft 327 kts 155°
2026-04-11 04:26 30.02907 -96.11105 11473 ft 326 kts 154°
2026-04-11 04:27 30.00873 -96.09929 11411 ft 325 kts 154°
2026-04-11 04:27 29.98854 -96.08762 11356 ft 324 kts 154°
2026-04-11 04:27 29.96843 -96.07601 11315 ft 323 kts 154°
2026-04-11 04:27 29.94859 -96.06461 11269 ft 322 kts 154°
2026-04-11 04:28 29.92857 -96.05312 11220 ft 321 kts 154°
2026-04-11 04:28 29.90859 -96.04167 11177 ft 320 kts 154°
2026-04-11 04:28 29.88871 -96.03028 11127 ft 319 kts 154°
2026-04-11 04:28 29.86879 -96.01889 11075 ft 319 kts 154°
2026-04-11 04:29 29.84890 -96.00752 11018 ft 319 kts 154°
2026-04-11 04:29 29.82901 -95.99615 10976 ft 319 kts 154°
2026-04-11 04:29 29.80936 -95.98389 10762 ft 323 kts 150°
2026-04-11 04:29 29.78998 -95.97094 10580 ft 321 kts 150°
2026-04-11 04:30 29.77110 -95.95829 10376 ft 312 kts 150°
2026-04-11 04:30 29.75262 -95.94601 10182 ft 301 kts 150°
2026-04-11 04:30 29.73472 -95.93420 9984 ft 292 kts 150°
2026-04-11 04:30 29.71742 -95.92289 9929 ft 278 kts 151°
2026-04-11 04:31 29.70064 -95.91204 9579 ft 275 kts 151°
2026-04-11 04:31 29.68414 -95.90138 9361 ft 268 kts 151°
2026-04-11 04:31 29.66804 -95.89097 9131 ft 264 kts 151°
2026-04-11 04:31 29.65227 -95.88017 8938 ft 264 kts 142°
2026-04-11 04:32 29.63941 -95.86499 8731 ft 266 kts 131°
2026-04-11 04:32 29.62762 -95.84878 8524 ft 269 kts 130°
2026-04-11 04:32 29.61563 -95.83217 8313 ft 271 kts 130°
2026-04-11 04:32 29.60367 -95.81571 8099 ft 265 kts 131°
2026-04-11 04:33 29.59195 -95.79967 7887 ft 259 kts 131°
2026-04-11 04:33 29.58046 -95.78403 7688 ft 255 kts 131°
2026-04-11 04:33 29.56900 -95.76850 7494 ft 255 kts 131°
2026-04-11 04:33 29.55754 -95.75301 7290 ft 253 kts 131°
2026-04-11 04:34 29.54618 -95.73766 7096 ft 252 kts 131°
2026-04-11 04:34 29.53480 -95.72231 6901 ft 251 kts 131°
2026-04-11 04:34 29.52348 -95.70706 6693 ft 251 kts 131°
2026-04-11 04:34 29.51241 -95.69215 6489 ft 245 kts 131°
2026-04-11 04:35 29.50146 -95.67742 6282 ft 239 kts 131°
2026-04-11 04:35 29.49084 -95.66313 6088 ft 232 kts 131°
2026-04-11 04:35 29.48184 -95.64809 5874 ft 228 kts 111°
2026-04-11 04:35 29.47843 -95.63060 5710 ft 223 kts 99°
2026-04-11 04:36 29.47707 -95.61296 5525 ft 220 kts 97°
2026-04-11 04:36 29.47596 -95.59558 5331 ft 216 kts 97°
2026-04-11 04:36 29.47482 -95.57844 5139 ft 214 kts 97°
2026-04-11 04:36 29.47364 -95.56168 4949 ft 213 kts 97°
2026-04-11 04:37 29.47240 -95.54480 4749 ft 212 kts 97°
2026-04-11 04:37 29.47114 -95.52804 4552 ft 210 kts 97°
2026-04-11 04:37 29.46988 -95.51134 4350 ft 209 kts 97°
2026-04-11 04:37 29.46861 -95.49475 4171 ft 208 kts 97°
2026-04-11 04:38 29.46926 -95.47818 3951 ft 214 kts 72°
2026-04-11 04:38 29.47829 -95.46447 3772 ft 219 kts 47°
2026-04-11 04:38 29.48922 -95.45218 3539 ft 222 kts 49°
2026-04-11 04:38 29.50021 -95.43968 3317 ft 222 kts 49°
2026-04-11 04:39 29.51118 -95.42742 3074 ft 217 kts 48°
2026-04-11 04:39 29.52159 -95.41588 2976 ft 202 kts 49°
2026-04-11 04:39 29.53125 -95.40516 2902 ft 190 kts 48°
2026-04-11 04:39 29.54074 -95.39459 2702 ft 189 kts 49°
2026-04-11 04:40 29.55008 -95.38421 2450 ft 184 kts 50°
2026-04-11 04:40 29.55918 -95.37409 2215 ft 181 kts 49°
2026-04-11 04:40 29.56818 -95.36410 1996 ft 178 kts 50°
2026-04-11 04:40 29.57690 -95.35442 1731 ft 169 kts 50°
2026-04-11 04:41 29.58499 -95.34544 1494 ft 157 kts 50°
2026-04-11 04:41 29.59254 -95.33706 1285 ft 148 kts 50°
2026-04-11 04:41 29.59992 -95.32886 1182 ft 143 kts 52°
2026-04-11 04:41 29.60689 -95.32111 948 ft 136 kts 51°
2026-04-11 04:42 29.61403 -95.31316 788 ft 143 kts 48°
2026-04-11 04:42 29.62118 -95.30522 582 ft 139 kts 48°
2026-04-11 04:42 29.62789 -95.29763 351 ft 137 kts 48°
2026-04-11 04:42 29.63501 -95.28989 207 ft 141 kts 45°
2026-04-11 04:43 29.64187 -95.28228 53 ft 129 kts 49°
2026-04-11 04:43 29.64714 -95.27645 48 ft 75 kts 44°
2026-04-11 04:43 29.64984 -95.27346 51 ft 46 kts 44°
2026-04-11 04:43 29.65172 -95.27195 51 ft 29 kts 19°
2026-04-11 04:44 29.65264 -95.27191 51 ft 2 kts 326°
2026-04-11 04:44 29.65267 -95.27204 51 ft 2 kts 271°
2026-04-11 04:44 29.65248 -95.27238 49 ft 11 kts 222°
2026-04-11 04:44 29.65188 -95.27299 50 ft 12 kts 224°
2026-04-11 04:45 29.65130 -95.27362 51 ft 11 kts 224°
2026-04-11 04:45 29.65102 -95.27442 51 ft 11 kts 270°
2026-04-11 04:45 29.65103 -95.27533 51 ft 12 kts 270°
2026-04-11 04:45 29.65101 -95.27628 51 ft 12 kts 269°
2026-04-11 04:46 29.65099 -95.27732 51 ft 15 kts 269°
2026-04-11 04:46 29.65099 -95.27865 51 ft 17 kts 278°
2026-04-11 04:46 29.65165 -95.27969 51 ft 16 kts 314°
2026-04-11 04:46 29.65241 -95.28059 51 ft 16 kts 314°
2026-04-11 04:47 29.65289 -95.28090 51 ft 5 kts 29°
2026-04-11 04:47 29.65297 -95.28042 51 ft 7 kts 88°
2026-04-11 04:47 29.65301 -95.27980 51 ft 8 kts 77°
2026-04-11 04:47 29.65322 -95.27915 51 ft 9 kts 68°
2026-04-11 04:48 29.65321 -95.27857 51 ft 7 kts 141°
2026-04-11 04:48 29.65295 -95.27843 51 ft 3 kts 155°
2026-04-11 04:48 29.65291 -95.27841 51 ft 0 kts 155°